Location: Unspecified
(35.7250°N, 0.0000°E)
Time: 13:11:30
(UTC+00:00)

Vanguard 1 Rocket - Pass Details

Date: 21 June 2019
Orbit: 651 x 4225 km, 34.3° (Epoch: 20 July)

Event Time Altitude Azimuth Distance (km) Brightness Sun altitude
Rises 18:40:02 0° 257° (WSW) 7,202 12.9 6.2°
Reaches altitude 10° 18:45:39 10° 257° (WSW) 5,635 12.4 5.2°
Maximum altitude 19:00:25 80° 173° (S) 1,659 8.8 2.5°
Drops below altitude 10° 19:07:41 10° 88° (E) 2,952 9.5 1.2°
Sets 19:09:45 0° 87° (E) 3,667 10.0 0.8°
